CAPE
710 425 187 23 0 0 0 0 0 0 0 0 0 0 0 0 0 0 0 0 0 0
826 443 355 133 1 0 0 0 0 0 0 0 0 0 0 0 0 0 0 0 0 0
884 701 504 352 159 73 29 0 0 0 0 0 0 0 0 0 0 0 0 0 0 0
976 956 655 406 217 157 16 0 0 0 0 0 0 0 0 0 0 0 0 0 0 0
1132 827 468 213 11 0 0 0 0 0 0 0 0 0 0 0 0 0 0 0 0 0
781 531 348 150 31 0 0 0 0 0 0 0 0 0 0 0 0 0 0 0 0 0
733 558 229 160 63 0 0 0 0 0 0 0 0 0 0 0 0 0 0 0 0 0
957 733 503 315 158 40 0 0 0 0 0 0 0 0 0 0 0 0 0 0 0 0
619 712 778 777 520 278 117 10 0 0 0 0 0 0 0 0 0 0 0 0 0 0
175 206 386 807 680 419 199 65 37 12 0 0 2 0 0 0 0 0 0 0 0 0
227 155 163 164 125 115 179 163 141 112 37 4 1 0 0 0 0 0 0 0 0 0
0 0 24 352 381 244 267 240 223 228 100 19 0 0 0 0 0 0 0 0 0 0
0 0 0 54 231 275 248 294 364 231 98 29 5 0 0 0 1 0 0 0 0 0
6 29 6 92 106 63 83 122 195 213 96 29 2 0 0 0 2 1 0 0 0 0
CIN
-108 -195 -307 -454 -0 -0 -0 -0 -0 -0 -0 -0 -0 -0 -0 -0 -0 -0 -0 -0 -0 -0
-103 -210 -224 -332 -93 -0 -0 -0 -0 -0 -0 -0 -0 -0 -0 -0 -0 -0 -0 -0 -0 -0
-84 -94 -130 -172 -235 -274 -294 -0 -0 -0 -0 -0 -0 -0 -0 -0 -0 -0 -0 -0 -0 -0
-88 -62 -76 -116 -182 -182 -200 -0 -0 -0 -0 -0 -0 -0 -0 -0 -0 -0 -0 -0 -0 -0
-59 -81 -114 -187 -345 -0 -0 -0 -0 -0 -0 -0 -0 -0 -0 -0 -0 -0 -0 -0 -0 -0
-74 -115 -138 -179 -261 -0 -0 -0 -0 -0 -0 -0 -0 -0 -0 -0 -0 -0 -0 -0 -0 -0
-60 -74 -124 -151 -192 -103 -0 -0 -0 -0 -0 -0 -0 -0 -0 -0 -0 -0 -0 -0 -0 -0
-11 -32 -61 -85 -125 -157 -0 -0 -0 -0 -0 -0 -0 -0 -0 -0 -0 -0 -0 -0 -0 -0
-14 -9 -18 -13 -33 -47 -68 -110 -0 -0 -0 -0 -0 -0 -0 -0 -0 -0 -0 -0 -0 -0
-52 -29 -19 -10 -7 -11 -22 -50 -78 -94 -0 -0 -47 -16 -0 -0 -0 -0 -0 -0 -0 -0
-31 -38 -29 -30 -27 -34 -30 -29 -43 -60 -79 -54 -13 -0 -0 -0 -0 -0 -0 -0 -0 -0
-0 -0 -26 -11 -9 -20 -20 -20 -24 -22 -53 -111 -0 -0 -0 -0 -0 -0 -0 -0 -0 -0
-0 -0 -0 -40 -15 -18 -20 -24 -9 -13 -47 -94 -18 -0 -0 -0 -0 -0 -0 -0 -0 -0
-21 -27 -66 -28 -27 -29 -35 -40 -24 -18 -42 -79 -21 -0 -0 -0 -0 -0 -0 -0 -0 -0
Wind_Speed
10 9 9 9 10 8 5 5 5 3 4 5 6 8 9 10 12 12 14 16 17 16
10 10 9 8 8 9 7 6 4 4 4 5 7 8 8 9 10 11 13 14 13 13
9 10 10 10 8 7 9 7 12 6 5 6 6 5 6 9 9 10 11 11 13 15
11 11 13 13 12 11 9 8 8 7 3 5 4 5 5 8 8 8 11 12 13 15
13 13 14 16 16 15 13 11 10 8 5 5 6 5 6 9 9 10 9 9 12 14
14 13 14 15 16 15 15 13 10 9 7 8 8 8 7 7 8 9 9 8 11 13
15 14 15 15 16 15 14 14 11 9 8 9 10 9 9 9 8 8 9 9 11 13
16 17 16 15 15 15 15 14 13 12 11 11 11 10 11 11 10 9 9 9 12 13
20 20 17 16 17 17 16 16 16 15 14 14 12 11 10 9 10 10 12 11 12 14
21 21 21 19 17 19 19 18 18 17 17 17 15 13 11 10 11 13 13 12 12 16
21 21 21 20 20 21 20 20 19 19 19 21 19 17 14 12 13 12 12 12 11 14
22 24 24 21 21 22 22 23 22 21 20 22 23 21 17 15 12 12 12 9 10 11
22 24 25 25 23 24 24 23 23 22 22 23 24 24 21 15 14 12 10 10 10 10
24 24 26 24 25 26 27 26 25 24 25 25 25 24 22 15 13 12 10 9 10 10
Wind_Direction
47 42 41 39 34 44 64 69 56 69 54 39 35 25 28 20 15 15 9 4 359 360
39 36 41 46 44 36 47 33 24 34 27 28 24 25 24 19 13 12 9 8 15 360
28 26 26 24 31 24 10 14 360 0 9 6 8 13 6 4 3 4 4 6 2 358
4 4 4 3 3 3 359 360 352 358 1 2 4 2 356 351 357 349 349 356 355 356
352 354 353 350 350 352 350 347 347 342 338 341 336 330 336 332 335 336 336 340 344 348
347 351 348 349 351 350 347 344 343 343 334 326 324 321 318 320 321 325 329 329 337 341
343 344 342 344 346 350 350 347 341 333 325 318 321 319 309 305 305 311 325 323 328 334
338 336 338 339 342 344 345 344 343 335 327 322 318 311 310 305 290 291 310 322 333 337
338 335 334 336 337 338 339 339 337 333 329 323 317 316 303 299 297 286 305 310 322 332
340 338 338 339 337 335 334 335 333 333 331 328 324 319 310 297 304 302 302 302 313 324
338 338 339 338 336 334 333 333 332 330 331 331 331 328 319 312 310 304 308 306 315 324
334 335 335 333 334 335 332 329 329 329 334 332 333 331 329 324 319 314 316 318 321 326
331 330 330 329 330 330 329 326 323 325 330 330 330 332 331 326 327 321 325 329 326 329
330 327 326 327 326 327 327 325 323 325 325 327 328 329 330 331 331 329 331 332 333 335